Location: Caltech
(34.1382°N, 118.1253°W)
Time: 04:34:33
(UTC-07:00)

FENGYUN 3A - Visible Passes

Search period start: 29 May 2016 00:00
Search period end: 08 June 2016 00:00
Orbit: 820 x 833 km, 98.5° (Epoch: 29 May)

Date Brightness Start Highest point End Pass type
(mag) Time Alt. Az. Time Alt. Az. Time Alt. Az.
29 May 3.8 20:45:39 10° S 20:51:00 80° WSW 20:56:26 10° NNW visible
30 May 3.7 20:26:52 10° SSE 20:32:11 68° ENE 20:37:32 10° N visible
30 May 6.3 22:10:52 10° WSW 22:12:49 12° W 22:14:47 10° WNW visible
31 May 5.9 21:50:04 10° SW 21:53:47 19° W 21:57:32 10° NW visible
01 Jun 5.4 21:30:11 10° SSW 21:34:47 29° W 21:39:27 10° NW visible
02 Jun 4.7 21:10:45 10° S 21:15:50 44° W 21:21:00 10° NNW visible
03 Jun 4.0 20:51:37 10° S 20:56:57 69° WSW 21:02:20 10° NNW visible
04 Jun 3.7 20:32:44 10° SSE 20:38:06 79° ENE 20:43:31 10° N visible
05 Jun 6.1 21:56:29 10° SW 21:59:47 16° W 22:03:05 10° NW visible
06 Jun 5.6 21:36:24 10° SSW 21:40:46 25° W 21:45:11 10° NW visible
07 Jun 4.9 21:16:50 10° SSW 21:21:48 38° W 21:26:49 10° NNW visible
